CW8630 Weather Reports


Display with metric or nautical units.
time (UTC)temp
F
wind
direction
speed
MPH
gust
MPH
rain 1hr
in
rain 24hr
in
rain mn
in
humidity
%
barometer
mb
20210801041319 69 273 5.0 11.0 0.00 0.00 0.00 81 1014.1
20210801040812 69 290 5.0 12.0 0.00 0.00 0.00 82 1014.3
20210801040307 69 287 5.0 12.0 0.00 0.00 0.00 82 1014.3
20210801035802 69 268 5.0 11.0 0.00 0.00 0.00 82 1014.4
20210801035256 69 261 5.0 11.0 0.00 0.00 0.00 81 1014.5
20210801034749 70 266 4.0 8.0 0.00 0.00 0.00 81 1014.5
20210801034244 70 248 4.0 8.0 0.00 0.00 0.00 81 1014.5
20210801033738 70 248 4.0 8.0 0.00 0.00 0.00 81 1014.6
20210801033232 70 273 4.0 8.0 0.00 0.00 0.00 81 1014.7
20210801032724 70 264 4.0 9.0 0.00 0.00 0.00 81 1014.7
20210801032220 70 258 4.0 9.0 0.00 0.00 0.00 81 1014.9
20210801031713 70 239 3.0 8.0 0.00 0.00 0.00 81 1015.0
20210801031209 70 230 4.0 8.0 0.00 0.00 0.00 81 1014.9
20210801030701 70 263 4.0 9.0 0.00 0.00 0.00 81 1014.9
20210801030155 70 246 4.0 9.0 0.00 0.00 0.00 80 1015.1
20210801025649 70 269 4.0 9.0 0.00 0.00 0.00 80 1015.1
20210801025142 70 259 4.0 9.0 0.00 0.00 0.00 80 1015.1
20210801024637 70 267 3.0 9.0 0.00 0.00 0.00 80 1015.1
20210801024132 70 220 3.0 7.0 0.00 0.00 0.00 80 1015.1
20210801023627 70 239 3.0 7.0 0.00 0.00 0.00 80 1015.1
20210801023120 70 271 3.0 7.0 0.00 0.00 0.00 79 1015.0
20210801022614 70 263 3.0 7.0 0.00 0.00 0.00 79 1015.0
20210801022107 71 218 3.0 7.0 0.00 0.00 0.00 79 1015.0
20210801021601 71 255 3.0 7.0 0.00 0.00 0.00 78 1015.0
20210801021058 71 270 3.0 8.0 0.00 0.00 0.00 78 1015.0
20210801020548 71 301 3.0 8.0 0.00 0.00 0.00 78 1014.9
20210801020044 71 291 3.0 8.0 0.00 0.00 0.00 78 1015.0
20210801015537 71 193 3.0 8.0 0.00 0.00 0.00 78 1014.7
20210801015032 71 288 3.0 6.0 0.00 0.00 0.00 77 1014.7
20210801014527 71 284 3.0 6.0 0.00 0.00 0.00 77 1014.7
20210801014020 71 269 2.0 5.0 0.00 0.00 0.00 77 1014.7
20210801013514 71 266 2.0 7.0 0.00 0.00 0.00 77 1014.6
20210801013006 71 298 4.0 8.0 0.00 0.00 0.00 76 1014.6
20210801012503 72 231 4.0 8.0 0.00 0.00 0.00 76 1014.6
20210801011954 72 228 4.0 9.0 0.00 0.00 0.00 75 1014.6
20210801011449 72 246 4.0 9.0 0.00 0.00 0.00 75 1014.6
20210801010944 72 255 4.0 9.0 0.00 0.00 0.00 74 1014.7
20210801010440 72 16 4.0 9.0 0.00 0.00 0.00 74 1014.7
20210801005932 73 266 4.0 8.0 0.00 0.00 0.00 73 1014.7
20210801005427 73 276 4.0 9.0 0.00 0.00 0.00 73 1014.7
20210801004920 73 255 5.0 12.0 0.00 0.00 0.00 72 1014.9
20210801004414 73 285 5.0 12.0 0.00 0.00 0.00 72 1014.7
20210801003908 73 236 5.0 10.0 0.00 0.00 0.00 71 1014.9
20210801003402 73 274 6.0 12.0 0.00 0.00 0.00 71 1014.9
20210801002856 74 266 5.0 13.0 0.00 0.00 0.00 71 1014.9
20210801002349 74 278 5.0 13.0 0.00 0.00 0.00 71 1014.9
20210801001845 74 299 6.0 11.0 0.00 0.00 0.00 70 1014.9
20210801001338 74 274 4.0 10.0 0.00 0.00 0.00 70 1014.9
20210801000831 74 250 4.0 12.0 0.00 0.00 0.00 70 1014.9
20210801000324 74 285 4.0 12.0 0.00 0.00 0.00 69 1015.0
20210731235819 74 331 4.0 11.0 0.00 0.00 0.00 69 1014.9
20210731235314 74 272 5.0 12.0 0.00 0.00 0.00 68 1015.0
20210731234813 75 247 6.0 12.0 0.00 0.00 0.00 68 1014.9
20210731234313 75 247 6.0 12.0 0.00 0.00 0.00 68 1014.9
20210731233812 75 292 6.0 12.0 0.00 0.00 0.00 67 1014.9
20210731233313 75 298 6.0 12.0 0.00 0.00 0.00 66 1015.0
20210731232813 75 321 7.0 18.0 0.00 0.00 0.00 66 1015.1
20210731232313 75 266 7.0 18.0 0.00 0.00 0.00 66 1015.1
20210731231814 75 199 8.0 17.0 0.00 0.00 0.00 67 1015.0
20210731231313 75 304 7.0 17.0 0.00 0.00 0.00 65 1015.0
20210731230813 76 246 6.0 12.0 0.00 0.00 0.00 66 1014.9
20210731230316 76 305 5.0 12.0 0.00 0.00 0.00 65 1014.9
20210731225813 76 252 5.0 14.0 0.00 0.00 0.00 65 1014.7
20210731225313 76 239 7.0 14.0 0.00 0.00 0.00 65 1014.7
20210731224814 76 256 7.0 15.0 0.00 0.00 0.00 64 1014.9
20210731224313 76 236 7.0 15.0 0.00 0.00 0.00 63 1015.0
20210731223814 76 234 6.0 15.0 0.00 0.00 0.00 64 1015.0
20210731223309 76 266 6.0 13.0 0.00 0.00 0.00 65 1015.0
20210731222810 76 249 6.0 13.0 0.00 0.00 0.00 63 1015.1
20210731222309 76 274 6.0 14.0 0.00 0.00 0.00 63 1015.1
20210731221808 76 239 6.0 14.0 0.00 0.00 0.00 63 1015.1
20210731221308 76 310 7.0 14.0 0.00 0.00 0.00 62 1015.1
20210731220808 76 286 7.0 14.0 0.00 0.00 0.00 62 1015.1
20210731220310 77 242 7.0 14.0 0.00 0.00 0.00 63 1015.1
20210731215809 77 262 7.0 14.0 0.00 0.00 0.00 61 1015.2
20210731215310 77 232 6.0 14.0 0.00 0.00 0.00 62 1015.2
20210731214805 77 309 5.0 12.0 0.00 0.00 0.00 62 1015.1
20210731214306 77 295 5.0 12.0 0.00 0.00 0.00 61 1015.2
20210731213804 77 244 4.0 12.0 0.00 0.00 0.00 61 1015.3
20210731213304 76 291 5.0 11.0 0.00 0.00 0.00 63 1015.3
20210731212804 76 183 6.0 12.0 0.00 0.00 0.00 63 1015.2
20210731212305 76 336 6.0 15.0 0.00 0.00 0.00 63 1015.2
20210731211805 77 263 5.0 15.0 0.00 0.00 0.00 61 1015.3
20210731211304 76 301 6.0 15.0 0.00 0.00 0.00 63 1015.3
20210731210807 76 260 6.0 14.0 0.00 0.00 0.00 63 1015.4
20210731210305 76 255 6.0 13.0 0.00 0.00 0.00 63 1015.3
20210731205805 76 281 6.0 13.0 0.00 0.00 0.00 63 1015.3
20210731205305 76 287 6.0 13.0 0.00 0.00 0.00 64 1015.3
20210731204805 76 228 6.0 13.0 0.00 0.00 0.00 61 1015.4
20210731204306 76 322 6.0 13.0 0.00 0.00 0.00 61 1015.4
20210731203805 76 331 7.0 16.0 0.00 0.00 0.00 62 1015.5
20210731203304 75 268 8.0 16.0 0.00 0.00 0.00 63 1015.5
20210731202804 76 262 6.0 13.0 0.00 0.00 0.00 62 1015.6
20210731202306 76 275 4.0 12.0 0.00 0.00 0.00 63 1015.6
20210731201758 76 281 5.0 12.0 0.00 0.00 0.00 62 1015.6
20210731201252 77 259 4.0 12.0 0.00 0.00 0.00 62 1015.7
20210731200745 76 239 4.0 10.0 0.00 0.00 0.00 63 1015.8
20210731200240 76 5 5.0 13.0 0.00 0.00 0.00 61 1015.9
20210731195735 76 317 5.0 13.0 0.00 0.00 0.00 61 1015.8
20210731195229 75 278 5.0 9.0 0.00 0.00 0.00 64 1016.0
20210731194727 75 257 6.0 14.0 0.00 0.00 0.00 62 1015.9
20210731194228 75 341 6.0 14.0 0.00 0.00 0.00 63 1016.0
20210731193725 75 264 6.0 13.0 0.00 0.00 0.00 62 1016.0
20210731193225 75 218 4.0 12.0 0.00 0.00 0.00 62 1016.0
20210731192724 75 163 4.0 11.0 0.00 0.00 0.00 62 1016.1
20210731192225 75 268 4.0 11.0 0.00 0.00 0.00 62 1016.1
20210731191724 74 319 6.0 12.0 0.00 0.00 0.00 63 1016.1
20210731191225 74 304 6.0 12.0 0.00 0.00 0.00 63 1016.2
20210731190724 75 276 5.0 12.0 0.00 0.00 0.00 63 1016.2
20210731190224 75 324 4.0 12.0 0.00 0.00 0.00 63 1016.3
20210731185724 75 317 5.0 12.0 0.00 0.00 0.00 65 1016.4
20210731185226 74 282 6.0 11.0 0.00 0.00 0.00 63 1016.5
20210731184724 75 301 5.0 11.0 0.00 0.00 0.00 64 1016.6
20210731184225 75 281 5.0 12.0 0.00 0.00 0.00 64 1016.6
20210731183725 74 242 6.0 12.0 0.00 0.00 0.00 68 1016.6
20210731183223 74 307 5.0 11.0 0.00 0.00 0.00 65 1016.6
20210731182723 74 294 5.0 10.0 0.00 0.00 0.00 68 1016.6
20210731182217 74 263 7.0 12.0 0.00 0.00 0.00 65 1016.7
20210731181709 73 294 6.0 12.0 0.00 0.00 0.00 67 1016.7
20210731181204 73 263 5.0 14.0 0.00 0.00 0.00 66 1016.9
20210731180659 74 294 5.0 14.0 0.00 0.00 0.00 67 1017.0
20210731180153 73 316 4.0 10.0 0.00 0.00 0.00 66 1017.0
20210731175646 74 270 4.0 10.0 0.00 0.00 0.00 70 1017.0
20210731175143 74 284 4.0 13.0 0.00 0.00 0.00 67 1017.1
20210731174633 73 40 6.0 14.0 0.00 0.00 0.00 68 1017.2
20210731174127 73 242 6.0 14.0 0.00 0.00 0.00 67 1017.3
20210731173623 73 338 4.0 12.0 0.00 0.00 0.00 66 1017.3
20210731173117 72 306 4.0 10.0 0.00 0.00 0.00 68 1017.4
20210731172612 73 241 4.0 10.0 0.00 0.00 0.00 67 1017.5
20210731172104 73 295 5.0 10.0 0.00 0.00 0.00 66 1017.5
20210731171559 72 289 5.0 13.0 0.00 0.00 0.00 67 1017.6
20210731171053 72 325 5.0 13.0 0.00 0.00 0.00 68 1017.7
20210731170548 72 255 6.0 12.0 0.00 0.00 0.00 66 1017.8
20210731170040 72 251 6.0 14.0 0.00 0.00 0.00 67 1017.8
20210731165535 72 172 6.0 14.0 0.00 0.00 0.00 67 1017.8
20210731165029 71 179 5.0 10.0 0.00 0.00 0.00 68 1017.8
20210731164521 72 254 5.0 13.0 0.00 0.00 0.00 69 1017.9
20210731164017 71 216 5.0 13.0 0.00 0.00 0.00 69 1018.0
20210731163511 71 202 5.0 11.0 0.00 0.00 0.00 68 1018.1
20210731163005 71 296 4.0 9.0 0.00 0.00 0.00 69 1018.1
20210731162458 70 231 5.0 9.0 0.00 0.00 0.00 69 1018.2
20210731161952 70 307 5.0 11.0 0.00 0.00 0.00 70 1018.2
20210731161447 71 221 4.0 11.0 0.00 0.00 0.00 69 1018.2
20210731160944 70 220 5.0 11.0 0.00 0.00 0.00 73 1018.2
20210731160435 70 243 5.0 11.0 0.00 0.00 0.00 73 1018.3
20210731155928 70 247 4.0 8.0 0.00 0.00 0.00 74 1018.3
20210731155430 70 243 4.0 9.0 0.00 0.00 0.00 72 1018.3
20210731154917 70 261 4.0 9.0 0.00 0.00 0.00 75 1018.3
20210731154411 70 255 4.0 9.0 0.00 0.00 0.00 75 1018.3
20210731153907 70 222 3.0 8.0 0.00 0.00 0.00 75 1018.2
20210731153359 69 291 3.0 8.0 0.00 0.00 0.00 76 1018.3
20210731152853 69 279 4.0 7.0 0.00 0.00 0.00 76 1018.2
20210731152349 69 278 4.0 9.0 0.00 0.00 0.00 76 1018.3
20210731151841 69 60 4.0 9.0 0.00 0.00 0.00 77 1018.3
20210731151335 69 166 4.0 8.0 0.00 0.00 0.00 76 1018.3
20210731150827 69 268 4.0 7.0 0.00 0.00 0.00 76 1018.4
20210731150321 69 244 5.0 9.0 0.00 0.00 0.00 76 1018.3
20210731145815 69 281 4.0 9.0 0.00 0.00 0.00 76 1018.3
20210731145312 69 261 3.0 8.0 0.00 0.00 0.00 77 1018.1
20210731144805 69 205 3.0 8.0 0.00 0.00 0.00 77 1018.0
20210731144258 69 277 4.0 14.0 0.00 0.00 0.00 77 1018.0
20210731143753 69 255 4.0 14.0 0.00 0.00 0.00 75 1018.0
20210731143249 69 164 3.0 8.0 0.00 0.00 0.00 77 1018.0
20210731142740 68 234 4.0 8.0 0.00 0.00 0.00 76 1017.9
20210731142235 68 285 4.0 7.0 0.00 0.00 0.00 77 1017.9
20210731141729 68 290 3.0 7.0 0.00 0.00 0.00 77 1017.9
20210731141222 68 264 4.0 8.0 0.00 0.00 0.00 78 1018.1
20210731140717 68 257 4.0 8.0 0.00 0.00 0.00 77 1018.1
20210731140210 67 301 4.0 8.0 0.00 0.00 0.00 78 1018.2
20210731135704 67 196 4.0 8.0 0.00 0.00 0.00 78 1018.0
20210731135203 67 206 4.0 8.0 0.00 0.00 0.00 80 1018.0
20210731134653 67 211 3.0 6.0 0.00 0.00 0.00 79 1018.0
20210731134146 67 215 3.0 7.0 0.00 0.00 0.00 79 1018.0
20210731133641 67 224 3.0 7.0 0.00 0.00 0.00 78 1018.0
20210731133138 67 275 3.0 7.0 0.00 0.00 0.00 78 1018.0
20210731132628 66 314 3.0 7.0 0.00 0.00 0.00 79 1018.0
20210731132124 66 222 3.0 7.0 0.00 0.00 0.00 80 1017.9
20210731131616 66 189 2.0 7.0 0.00 0.00 0.00 81 1018.0
20210731131111 66 301 3.0 7.0 0.00 0.00 0.00 81 1018.0
20210731130605 66 207 3.0 7.0 0.00 0.00 0.00 82 1018.1
20210731130103 65 181 3.0 7.0 0.00 0.00 0.00 84 1018.0
20210731125603 65 190 3.0 7.0 0.00 0.00 0.00 85 1018.0
20210731125101 65 222 3.0 7.0 0.00 0.00 0.00 85 1018.1
20210731124601 65 193 2.0 6.0 0.00 0.00 0.00 85 1018.1
20210731124101 65 199 3.0 6.0 0.00 0.00 0.00 85 1018.1
20210731123601 64 176 3.0 6.0 0.00 0.00 0.00 85 1018.1
20210731123102 64 264 3.0 6.0 0.00 0.00 0.00 87 1018.1
20210731122601 63 185 3.0 6.0 0.00 0.00 0.00 86 1018.0
20210731122101 63 181 3.0 6.0 0.00 0.00 0.00 86 1018.0
20210731121601 63 196 2.0 6.0 0.00 0.00 0.00 85 1018.1
20210731121102 63 222 2.0 3.0 0.00 0.00 0.00 86 1018.1
20210731120601 64 118 2.0 4.0 0.00 0.00 0.00 86 1018.1
20210731120102 64 158 2.0 4.0 0.00 0.00 0.00 86 1018.1
20210731115602 63 170 2.0 4.0 0.00 0.00 0.00 85 1018.1
20210731115058 63 180 1.0 3.0 0.00 0.00 0.00 85 1018.1
20210731114559 62 166 1.0 3.0 0.00 0.00 0.00 85 1018.2
20210731114100 62 116 1.0 3.0 0.00 0.00 0.00 86 1018.3
20210731113558 62 181 1.0 3.0 0.00 0.00 0.00 87 1018.3
20210731113057 62 183 1.0 2.0 0.00 0.00 0.00 88 1018.2
20210731112557 62 87 1.0 3.0 0.00 0.00 0.00 89 1018.1
20210731112058 61 60 1.0 3.0 0.00 0.00 0.00 91 1018.3
20210731111557 61 131 0.0 2.0 0.00 0.00 0.00 93 1018.2
20210731111059 60 331 0.0 1.0 0.00 0.00 0.00 93 1018.3
20210731110554 60 60 0.0 1.0 0.00 0.00 0.00 93 1018.3
20210731110054 60 266 0.0 2.0 0.00 0.00 0.00 92 1018.4
20210731105555 60 16 1.0 2.0 0.00 0.00 0.00 92 1018.5
20210731105054 60 193 1.0 2.0 0.00 0.00 0.00 93 1018.4
20210731104553 60 239 1.0 2.0 0.00 0.00 0.00 92 1018.3
20210731104053 60 284 1.0 2.0 0.00 0.00 0.00 92 1018.3
20210731103553 60 239 1.0 2.0 0.00 0.00 0.00 92 1018.4
20210731103055 60 239 1.0 2.0 0.00 0.00 0.00 92 1018.2
20210731102558 60 60 1.0 2.0 0.00 0.00 0.00 92 1018.2
20210731102054 60 9 1.0 2.0 0.00 0.00 0.00 92 1018.2
20210731101556 60 16 0.0 1.0 0.00 0.00 0.00 92 1018.2
20210731101051 60 358 0.0 1.0 0.00 0.00 0.00 91 1018.2
20210731100552 60 149 1.0 2.0 0.00 0.00 0.00 91 1018.1
20210731100051 61 78 1.0 2.0 0.00 0.00 0.00 91 1018.1
20210731095552 61 87 1.0 2.0 0.00 0.00 0.00 91 1018.1
20210731095051 61 106 1.0 2.0 0.00 0.00 0.00 91 1018.1
20210731094554 61 60 1.0 2.0 0.00 0.00 0.00 91 1018.2
20210731094052 61 149 1.0 2.0 0.00 0.00 0.00 91 1018.1
20210731093552 61 72 1.0 2.0 0.00 0.00 0.00 91 1018.1
20210731093052 61 149 1.0 2.0 0.00 0.00 0.00 91 1018.2
20210731092547 61 16 1.0 2.0 0.00 0.00 0.00 91 1018.0
20210731092039 61 106 1.0 2.0 0.00 0.00 0.00 91 1018.1
20210731091532 61 149 1.0 2.0 0.00 0.00 0.00 91 1018.1
20210731091026 61 94 1.0 2.0 0.00 0.00 0.00 91 1018.1
20210731090522 61 106 1.0 2.0 0.00 0.00 0.00 91 1018.2
20210731090017 61 83 1.0 2.0 0.00 0.00 0.00 91 1018.2
20210731085509 61 94 1.0 2.0 0.00 0.00 0.00 91 1018.2
20210731085004 61 87 1.0 2.0 0.00 0.00 0.00 91 1018.1
20210731084458 61 94 1.0 2.0 0.00 0.00 0.00 91 1018.2
20210731083950 62 97 1.0 3.0 0.00 0.00 0.00 90 1018.3
20210731083445 62 92 1.0 3.0 0.00 0.00 0.00 90 1018.3
20210731082938 62 87 1.0 2.0 0.00 0.00 0.00 89 1018.4
20210731082431 62 131 1.0 3.0 0.00 0.00 0.00 89 1018.5
20210731081926 62 149 1.0 3.0 0.00 0.00 0.00 88 1018.7
20210731081419 62 168 1.0 2.0 0.00 0.00 0.00 88 1018.9
20210731080914 62 149 1.0 2.0 0.00 0.00 0.00 88 1018.9
20210731080407 62 193 1.0 3.0 0.00 0.00 0.00 88 1018.9
20210731075901 62 199 1.0 3.0 0.00 0.00 0.00 88 1019.0
20210731075355 62 149 1.0 3.0 0.00 0.00 0.00 88 1019.1
20210731074850 62 149 1.0 3.0 0.00 0.00 0.00 88 1019.1
20210731074343 62 168 1.0 3.0 0.00 0.00 0.00 88 1019.0
20210731073837 62 106 1.0 3.0 0.00 0.00 0.00 87 1019.1
20210731073332 62 116 1.0 3.0 0.00 0.00 0.00 88 1019.2
20210731072824 62 149 1.0 2.0 0.00 0.00 0.00 88 1019.2
20210731072318 62 106 1.0 3.0 0.00 0.00 0.00 88 1019.3
20210731071812 62 127 1.0 3.0 0.00 0.00 0.00 87 1019.3
20210731071306 62 106 1.0 2.0 0.00 0.00 0.00 88 1019.4
20210731070759 62 87 1.0 3.0 0.00 0.00 0.00 88 1019.3
20210731070254 62 87 1.0 3.0 0.00 0.00 0.00 87 1019.4
20210731065748 62 87 1.0 3.0 0.00 0.00 0.00 88 1019.4
20210731065241 62 106 1.0 2.0 0.00 0.00 0.00 88 1019.4
20210731064735 62 94 1.0 2.0 0.00 0.00 0.00 88 1019.3
20210731064228 62 87 1.0 2.0 0.00 0.00 0.00 88 1019.4
20210731063725 63 83 1.0 4.0 0.00 0.00 0.00 88 1019.3
20210731063217 63 94 1.0 4.0 0.00 0.00 0.00 87 1019.4
20210731062711 63 87 1.0 2.0 0.00 0.00 0.00 87 1019.5
20210731062206 63 87 1.0 3.0 0.00 0.00 0.00 87 1019.6
20210731061700 63 106 1.0 3.0 0.00 0.00 0.00 87 1019.5
20210731061154 63 99 1.0 2.0 0.00 0.00 0.00 86 1019.6
20210731060647 63 149 1.0 3.0 0.00 0.00 0.00 86 1019.6
20210731060141 63 94 1.0 3.0 0.00 0.00 0.00 86 1019.6
20210731055635 63 188 2.0 3.0 0.00 0.00 0.00 86 1019.8
20210731055131 63 161 1.0 3.0 0.00 0.00 0.00 85 1020.0
20210731054624 63 140 1.0 2.0 0.00 0.00 0.00 85 1020.1
20210731054117 63 106 1.0 3.0 0.00 0.00 0.00 85 1020.1
20210731053612 63 116 1.0 3.0 0.00 0.00 0.00 85 1020.1
20210731053106 64 164 1.0 3.0 0.00 0.00 0.00 84 1020.1
20210731052559 64 113 1.0 3.0 0.00 0.00 0.00 84 1020.2
20210731052055 64 122 1.0 3.0 0.00 0.00 0.00 84 1020.2
20210731051549 64 201 1.0 3.0 0.00 0.00 0.00 83 1020.2
20210731051042 64 183 2.0 3.0 0.00 0.00 0.00 84 1020.3
20210731050536 64 87 2.0 3.0 0.00 0.00 0.00 84 1020.3
20210731050028 64 140 2.0 4.0 0.00 0.00 0.00 83 1020.3
20210731045522 64 161 2.0 4.0 0.00 0.00 0.00 83 1020.2
20210731045014 64 109 2.0 4.0 0.00 0.00 0.00 84 1020.2
20210731044509 64 113 2.0 5.0 0.00 0.00 0.00 83 1020.1
20210731044008 64 128 2.0 5.0 0.00 0.00 0.00 84 1020.1
20210731043457 64 68 2.0 3.0 0.00 0.00 0.00 87 1020.0
20210731042952 65 83 1.0 3.0 0.00 0.00 0.00 88 1020.0
20210731042446 65 94 1.0 2.0 0.00 0.00 0.00 88 1020.0
20210731041939 65 106 1.0 2.0 0.00 0.00 0.00 87 1020.1